Weather Roundup
Issued by NWS

Home | Current Version | Previous Version | Text Only | Print | Product List | Glossary On
Versions: 1 2 3 4 5 6 7 8 9 10 11 12 13 14 15 16 17 18 19 20 21 22 23 24 25 26 27 28 29 30 31 32 33 34 35 36 37 38 39 40 41 42 43 44 45 46 47 48 49 50
483
NZUS93 KARX 202259
HRRWXR

CURRENT HOURLY OBSERVATIONS ACROSS
MUCH OF THE UPPER MISSISSIPPI VALLEY
NATIONAL WEATHER SERVICE LA CROSSE WI
600 PM CDT FRI APR 20 2018


...SOUTHEAST MINNESOTA...


CITY           SKY/WX    TMP DP  RH WIND       PRES   REMARKS
ROCHESTER      FAIR      42  29  59 SW5       30.42F
ROCHESTER/MAYO FAIR      48  19  31 CALM      30.42S
WINONA         FAIR      54  28  37 SW3       30.40F
AUSTIN         FAIR      43  25  49 E3        30.42F
ALBERT LEA     FAIR      43  21  42 E5        30.42S
DODGE CENTER   FAIR      45  27  49 CALM      30.42F
PRESTON        FAIR      45  16  31 CALM      30.42F
OWATONNA       FAIR      46  28  49 E3        30.42S
FARIBAULT      NOT AVBL
$$

...ELSEWHERE IN MINNESOTA...


CITY           SKY/WX    TMP DP  RH WIND       PRES   REMARKS
MINNEAPOLIS    PTSUNNY   50  19  29 S6        30.42S
INTNL FALLS    FAIR      59  19  21 CALM      30.33F
DULUTH         FAIR      54  23  30 SW6       30.36F
RED WING       FAIR      52   7  16 S7        30.41F
REDWOOD FALLS  CLOUDY    41  32  70 SE10      30.42R
MANKATO        FAIR      44  25  47 SE6       30.43S
WORTHINGTON    MOSUNNY   38  33  82 E7        30.41R WCI  33
FAIRMONT       CLOUDY    38  28  67 E3        30.43R
$$

...SOUTHWEST WISCONSIN...


CITY           SKY/WX    TMP DP  RH WIND       PRES   REMARKS
LA CROSSE      FAIR      56  21  25 SW8       30.41F
PRAIRIE DU CHI FAIR      57  24  28 CALM      30.40S
BOSCOBEL       FAIR      60  24  25 CALM      30.40F
LONE ROCK      NOT AVBL
PLATTEVILLE    FAIR      58  27  31 S3        30.40F
FORT MC COY    FAIR      55  12  18 SW5       30.43S
CAMP DOUGLAS   FAIR      54  14  20 CALM      30.41S
MAUSTON-NEW LI FAIR      54  15  21 SE3       30.41S
VIROQUA        FAIR      50  31  49 NE5       30.40S
WIS DELLS      FAIR      54   6  14 CALM      30.42F
$$

...ELSEWHERE IN WISCONSIN...


CITY           SKY/WX    TMP DP  RH WIND       PRES   REMARKS
MILWAUKEE      PTSUNNY   49  21  33 SE10      30.44F
MADISON        PTSUNNY   54  25  32 NE9       30.41F
GREEN BAY      FAIR      49  19  30 S8        30.43F
EAU CLAIRE     NOT AVBL
BLACK RVR FLS  FAIR      56   8  14 W3        30.41F
MEDFORD        FAIR      49  15  25 S6        30.41F
WAUSAU         FAIR      51  16  24 W8        30.40F
WIS RAPIDS     FAIR      54  11  18 W3        30.42F
MARSHFIELD     FAIR      53  14  21 CALM      30.40F
RICE LAKE      FAIR      51  20  28 NW5       30.42F
$$

...NORTHEAST IOWA...


CITY           SKY/WX    TMP DP  RH WIND       PRES   REMARKS
WATERLOO       FAIR      56  28  34 S5        30.37F
DUBUQUE        FAIR      56  21  25 S5        30.39F
DECORAH        FAIR      48  28  46 CALM      30.40F
MASON CITY     CLOUDY    39  31  72 NE10      30.41F WCI  32
CHARLES CITY   FAIR      46  32  57 NE10      30.41S
OELWEIN        FAIR      55  30  38 SE6       30.38F
$$

...ELSEWHERE IN IOWA...


CITY           SKY/WX    TMP DP  RH WIND       PRES   REMARKS
DES MOINES     CLOUDY    59  26  28 E8        30.34S
IOWA CITY      FAIR      59  19  21 SE9       30.39S
FORT DODGE     CLOUDY    52  42  69 NE7       30.37S
MARSHALLTOWN   CLOUDY    56  29  35 E10       30.35F
CEDAR RAPIDS   FAIR      58  19  22 S8        30.36F
$$

...NORTHERN ILLINOIS...


CITY           SKY/WX    TMP DP  RH WIND       PRES   REMARKS
CHICAGO-OHARE  FAIR      56  11  16 E14       30.42F
CHICAGO-MIDWAY PTSUNNY   56  11  16 E15       30.44F
MOLINE         FAIR      61  17  18 SE8       30.37F
ROCKFORD       PTSUNNY   58  18  21 CALM      30.42F
PEORIA         FAIR      61  23  23 E8        30.38F
$$

NOTE: "FAIR" INDICATES FEW OR NO CLOUDS BELOW 12,000 FEET WITH NO
SIGNIFICANT WEATHER AND/OR OBSTRUCTIONS TO VISIBILITY. WIND
SPEEDS ARE IN MILES-PER-HOUR.




USA.gov is the U.S. government's official web portal to all federal, state and local government web resources and services.